Flag Weather past 2 weeks in Kalamazoo, Michigan, U.S.A.

Now
28 °F

Overcast.


Feels Like: 22 °F
Forecast: 23 / 33 °F
Wind: 6 mph from Southwest

Location: Kalamazoo / Battle Creek International Airport

Current Time: Nov 25, 2014 at 8:23:05 PM

Latest Report: Nov 25, 2014 at 7:53 PM


Visibility: 10 mi

Pressure: 30.19 "Hg

Humidity: 75%

Dew point: 21 °F

Location of KalamazooLocation

Historic Weather in Kalamazoo — Graph

°F

Kalamazoo temperature yesterday

Maximum temperature yesterday: 52 °F (at 2:53 AM)
Minimum temperature yesterday: 30 °F (at 11:53 PM)
Average temperature yesterday: 43 °F

Past Weeks' High & Low Weather Summary

 TemperatureHumidityPressure
High55 °F (Nov 11, 10:53 AM)93% (Nov 14, 3:00 PM)30.50 "Hg (Nov 14, 3:00 PM)
Low13 °F (Nov 18, 4:58 AM)51% (Nov 10, 6:53 PM)29.05 "Hg (Nov 24, 1:53 AM)
Average30 °F77%30.00 "Hg
* Reported Nov 10 6:53 PM — Nov 25 6:53 PM, Kalamazoo, Weather by CustomWeather, © 2014

Note: Actual official high and low records may vary slightly from our data, if they occured in-between our weather recording intervals... More about our weather records

Advertising

Kalamazoo weather history for previous 24 hours

 ConditionsComfort  
Time TempWeatherWind HumidityBarometerVisibility
6:53 PM
Nov 25
28 °FOvercast.6 mph72%30.19 "Hg10 mi
5:53 PM29 °FOvercast.6 mph69%30.17 "Hg10 mi
4:53 PM29 °FOvercast.9 mph69%30.15 "Hg10 mi
3:53 PM29 °FOvercast.13 mph72%30.14 "Hg10 mi
2:53 PM29 °FOvercast.9 mph72%30.11 "Hg10 mi
1:53 PM29 °FOvercast.15 mph72%30.07 "Hg10 mi
1:00 PM29 °FOvercast.12 mph79%30.04 "Hg10 mi
11:53 AM28 °FOvercast.10 mph85%30.06 "Hg8 mi
10:53 AM28 °FIce fog.10 mph85%30.03 "Hg4 mi
10:01 AM27 °FOvercast.10 mph81%29.98 "Hg6 mi
9:53 AM28 °FOvercast.12 mph78%30.01 "Hg10 mi
8:53 AM28 °FOvercast.12 mph75%29.98 "Hg9 mi
7:53 AM28 °FOvercast.10 mph78%29.95 "Hg60 mi
6:53 AM29 °FLight snow. Overcast.16 mph72%29.92 "Hg8 mi
5:53 AM29 °FOvercast.13 mph75%29.89 "Hg10 mi
4:53 AM29 °FOvercast.15 mph75%29.86 "Hg10 mi
3:53 AM29 °FOvercast.18 mph79%29.84 "Hg10 mi
2:53 AM29 °FOvercast.20 mph82%29.81 "Hg6 mi
1:53 AM30 °FOvercast.20 mph79%29.79 "Hg7 mi
12:53 AM30 °FOvercast.15 mph79%29.77 "Hg7 mi
11:53 PM
Nov 24
30 °FOvercast.22 mph82%29.75 "Hg7 mi
10:53 PM31 °FOvercast.23 mph79%29.73 "Hg8 mi
9:53 PM31 °FOvercast.20 mph79%29.70 "Hg10 mi
8:53 PM32 °FOvercast.17 mph75%29.66 "Hg10 mi
Weather by CustomWeather, © 2014

See weather overviewHow to use our weather pages